�������l�o���
Date,Time,MP-1(��Sv/h),MP-2(��Sv/h),MP-3(��Sv/h),MP-4(��Sv/h),MP-5(��Sv/h),MP-6(��Sv/h),MP-7(��Sv/h),MP-8(��Sv/h),����,����(m/s),���J
2023/04/29,00:00,0.560,0.820,0.496,1.015,0.723,0.324,0.577,0.543,��,4.9,��
2023/04/29,00:10,0.560,0.819,0.495,1.016,0.722,0.324,0.575,0.543,��,6.1,��
2023/04/29,00:20,0.560,0.820,0.494,1.015,0.722,0.325,0.575,0.543,��,6.7,��
2023/04/29,00:30,0.562,0.820,0.498,1.016,0.723,0.325,0.576,0.542,��,5.6,��
2023/04/29,00:40,0.561,0.818,0.496,1.013,0.723,0.324,0.575,0.542,��쐼,5.5,��
2023/04/29,00:50,0.560,0.821,0.495,1.016,0.722,0.324,0.574,0.542,��,6.8,��
2023/04/29,01:00,0.560,0.818,0.494,1.015,0.721,0.324,0.575,0.543,��쐼,6.7,��
2023/04/29,01:10,0.560,0.819,0.495,1.015,0.722,0.323,0.575,0.543,��,5.3,��
2023/04/29,01:20,0.561,0.818,0.494,1.015,0.721,0.324,0.576,0.542,��,5.8,��
2023/04/29,01:30,0.558,0.816,0.495,1.018,0.721,0.324,0.574,0.543,��,6.3,��
2023/04/29,01:40,0.558,0.820,0.497,1.017,0.722,0.323,0.575,0.543,��,6.2,��
2023/04/29,01:50,0.561,0.820,0.495,1.016,0.722,0.323,0.576,0.543,��,4.6,��
2023/04/29,02:00,0.559,0.819,0.495,1.016,0.723,0.324,0.575,0.541,��쐼,4.5,��
2023/04/29,02:10,0.560,0.818,0.495,1.017,0.723,0.324,0.575,0.543,��,6.2,��
2023/04/29,02:20,0.559,0.817,0.496,1.014,0.722,0.325,0.577,0.543,��,6.1,��
2023/04/29,02:30,0.560,0.817,0.494,1.017,0.721,0.324,0.574,0.543,��,5.8,��
2023/04/29,02:40,0.559,0.818,0.495,1.014,0.722,0.323,0.575,0.543,��,5.4,��
2023/04/29,02:50,0.558,0.819,0.496,1.016,0.722,0.324,0.575,0.544,��,6.0,��
2023/04/29,03:00,0.559,0.817,0.495,1.016,0.721,0.324,0.574,0.542,��,6.0,��
2023/04/29,03:10,0.559,0.816,0.496,1.016,0.721,0.325,0.575,0.542,��,6.4,��
2023/04/29,03:20,0.558,0.819,0.496,1.014,0.723,0.324,0.575,0.542,��,5.5,��
2023/04/29,03:30,0.559,0.819,0.496,1.014,0.721,0.324,0.576,0.542,��,5.7,��
2023/04/29,03:40,0.559,0.817,0.495,1.015,0.722,0.323,0.576,0.543,��,6.7,��
2023/04/29,03:50,0.560,0.817,0.494,1.015,0.722,0.323,0.577,0.543,��,6.5,��
2023/04/29,04:00,0.560,0.819,0.496,1.016,0.723,0.324,0.578,0.543,��,6.5,��
2023/04/29,04:10,0.560,0.816,0.496,1.014,0.721,0.325,0.574,0.542,��,6.9,��
2023/04/29,04:20,0.558,0.818,0.494,1.015,0.721,0.325,0.576,0.541,��,7.6,��
2023/04/29,04:30,0.559,0.818,0.496,1.016,0.721,0.322,0.576,0.542,��,9.0,��
2023/04/29,04:40,0.559,0.820,0.494,1.014,0.720,0.323,0.578,0.542,��,9.1,��
2023/04/29,04:50,0.558,0.816,0.495,1.016,0.721,0.322,0.576,0.543,��쐼,7.4,��
2023/04/29,05:00,0.557,0.817,0.494,1.014,0.721,0.324,0.575,0.541,��쐼,6.9,��
2023/04/29,05:10,0.560,0.818,0.494,1.014,0.720,0.323,0.576,0.542,��,5.4,��
2023/04/29,05:20,0.558,0.815,0.493,1.014,0.721,0.324,0.577,0.544,��,5.8,��
2023/04/29,05:30,0.559,0.818,0.495,1.014,0.720,0.323,0.577,0.543,��,5.9,��
2023/04/29,05:40,0.559,0.815,0.494,1.015,0.721,0.323,0.576,0.542,��,5.7,��
2023/04/29,05:50,0.560,0.819,0.495,1.017,0.721,0.323,0.576,0.544,��쓌,5.7,��
2023/04/29,06:00,0.559,0.819,0.496,1.014,0.720,0.324,0.577,0.543,��,6.2,��
2023/04/29,06:10,0.559,0.819,0.494,1.014,0.722,0.323,0.577,0.544,��,5.9,��
2023/04/29,06:20,0.560,0.818,0.495,1.013,0.721,0.324,0.576,0.542,��,5.3,��
2023/04/29,06:30,0.561,0.818,0.496,1.017,0.720,0.323,0.577,0.543,��,6.2,��
2023/04/29,06:40,0.561,0.819,0.496,1.013,0.722,0.323,0.578,0.544,��,6.0,��
2023/04/29,06:50,0.560,0.818,0.495,1.015,0.722,0.323,0.579,0.544,��,4.4,��
2023/04/29,07:00,0.560,0.817,0.497,1.017,0.722,0.322,0.577,0.542,��쓌,4.4,��
2023/04/29,07:10,0.561,0.817,0.495,1.017,0.723,0.321,0.578,0.543,��쓌,3.9,��
2023/04/29,07:20,0.560,0.817,0.496,1.016,0.723,0.322,0.577,0.544,��쓌,3.7,��
2023/04/29,07:30,0.560,0.818,0.495,1.017,0.720,0.321,0.576,0.544,��쓌,5.1,��
2023/04/29,07:40,0.560,0.815,0.496,1.018,0.721,0.322,0.576,0.545,��쓌,4.9,��
2023/04/29,07:50,0.561,0.818,0.496,1.016,0.720,0.322,0.576,0.543,��쓌,6.6,��
2023/04/29,08:00,0.559,0.816,0.495,1.015,0.722,0.322,0.577,0.544,��쓌,7.4,��
2023/04/29,08:10,0.559,0.818,0.495,1.018,0.721,0.323,0.577,0.542,��쓌,7.9,��
2023/04/29,08:20,0.559,0.816,0.494,1.019,0.720,0.324,0.577,0.542,��,7.2,��
2023/04/29,08:30,0.559,0.818,0.495,1.017,0.721,0.322,0.576,0.543,��,8.1,��
2023/04/29,08:40,0.561,0.818,0.496,1.018,0.723,0.323,0.573,0.540,��쓌,8.9,��
2023/04/29,08:50,0.561,0.818,0.494,1.018,0.723,0.323,0.574,0.542,��쓌,10.8,��
2023/04/29,09:00,0.560,0.818,0.494,1.015,0.721,0.323,0.575,0.541,��쓌,10.8,��
2023/04/29,09:10,0.560,0.817,0.494,1.016,0.724,0.322,0.576,0.542,��쓌,10.2,��
2023/04/29,09:20,0.559,0.820,0.495,1.017,0.722,0.324,0.575,0.541,��쓌,11.1,��
2023/04/29,09:30,0.559,0.821,0.493,1.016,0.722,0.323,0.576,0.541,��쓌,12.2,��
2023/04/29,09:40,0.560,0.818,0.495,1.019,0.723,0.323,0.575,0.542,��쓌,13.3,��
2023/04/29,09:50,0.560,0.821,0.494,1.018,0.722,0.322,0.575,0.541,��쓌,12.4,��
2023/04/29,10:00,0.558,0.821,0.495,1.017,0.722,0.323,0.575,0.541,��쓌,13.3,��
2023/04/29,10:10,0.561,0.819,0.495,1.019,0.722,0.323,0.576,0.541,��쓌,14.1,��
2023/04/29,10:20,0.561,0.820,0.494,1.018,0.722,0.323,0.575,0.541,��쓌,12.7,��
2023/04/29,10:30,0.560,0.820,0.494,1.017,0.721,0.324,0.575,0.543,��쓌,13.0,��
2023/04/29,10:40,0.561,0.820,0.496,1.020,0.723,0.323,0.576,0.542,��쓌,13.5,��
2023/04/29,10:50,0.561,0.821,0.494,1.021,0.724,0.324,0.575,0.542,��쓌,14.4,��
2023/04/29,11:00,0.562,0.821,0.496,1.018,0.724,0.324,0.574,0.541,��쓌,13.5,��
2023/04/29,11:10,0.561,0.821,0.494,1.019,0.723,0.323,0.575,0.544,��쓌,13.6,��
2023/04/29,11:20,0.561,0.821,0.496,1.019,0.725,0.324,0.573,0.542,��쓌,12.8,��
2023/04/29,11:30,0.562,0.822,0.495,1.017,0.726,0.324,0.574,0.543,��쓌,13.6,��
2023/04/29,11:40,0.562,0.823,0.495,1.013,0.726,0.324,0.576,0.543,��쓌,13.6,��
2023/04/29,11:50,0.563,0.823,0.496,1.017,0.724,0.324,0.576,0.543,��쓌,15.2,��
2023/04/29,12:00,0.562,0.823,0.496,1.018,0.724,0.324,0.573,0.543,��쓌,15.2,��
2023/04/29,12:10,0.562,0.823,0.497,1.017,0.723,0.325,0.575,0.544,��쓌,14.1,��
2023/04/29,12:20,0.563,0.822,0.496,1.014,0.727,0.324,0.575,0.542,��쓌,15.2,��
2023/04/29,12:30,0.562,0.823,0.495,1.018,0.727,0.323,0.574,0.543,��쓌,16.9,�L
2023/04/29,12:40,0.564,0.821,0.497,1.020,0.726,0.324,0.576,0.542,��쓌,15.0,��
2023/04/29,12:50,0.562,0.821,0.497,1.017,0.726,0.324,0.575,0.543,��쓌,16.6,��
2023/04/29,13:00,0.563,0.824,0.497,1.018,0.727,0.324,0.576,0.541,��쓌,17.5,��
2023/04/29,13:10,0.563,0.822,0.496,1.020,0.727,0.324,0.574,0.543,��쓌,13.8,��
2023/04/29,13:20,0.563,0.822,0.498,1.020,0.726,0.324,0.575,0.543,��쓌,17.2,��
2023/04/29,13:30,0.561,0.822,0.495,1.020,0.727,0.324,0.574,0.542,��쓌,18.6,��
2023/04/29,13:40,0.561,0.823,0.496,1.022,0.725,0.325,0.575,0.543,��,14.1,��
2023/04/29,13:50,0.564,0.822,0.496,1.020,0.726,0.325,0.575,0.543,��쓌,15.5,��
2023/04/29,14:00,0.564,0.823,0.497,1.020,0.727,0.325,0.576,0.543,��쓌,14.1,��
2023/04/29,14:10,0.564,0.822,0.499,1.020,0.729,0.324,0.574,0.544,��쓌,14.4,��
2023/04/29,14:20,0.564,0.824,0.496,1.022,0.727,0.323,0.574,0.544,��,13.6,��
2023/04/29,14:30,0.562,0.822,0.497,1.020,0.728,0.324,0.577,0.543,��,12.2,��
2023/04/29,14:40,0.563,0.822,0.497,1.022,0.727,0.325,0.575,0.545,��,12.4,��
2023/04/29,14:50,0.563,0.823,0.497,1.020,0.729,0.326,0.576,0.544,��쓌,12.0,��
2023/04/29,15:00,0.565,0.821,0.496,1.019,0.728,0.325,0.577,0.544,��쓌,14.9,��
2023/04/29,15:10,0.563,0.823,0.497,1.017,0.728,0.324,0.576,0.544,��쓌,14.6,��
2023/04/29,15:20,0.565,0.823,0.498,1.020,0.729,0.325,0.575,0.545,��쓌,11.6,��
2023/04/29,15:30,0.564,0.825,0.497,1.020,0.727,0.325,0.576,0.544,��,11.6,��
2023/04/29,15:40,0.564,0.823,0.497,1.018,0.729,0.324,0.575,0.543,��쓌,15.0,��
2023/04/29,15:50,0.565,0.825,0.496,1.019,0.729,0.326,0.574,0.544,��,13.0,��
2023/04/29,16:00,0.563,0.824,0.497,1.019,0.729,0.324,0.575,0.544,��쓌,13.3,��
2023/04/29,16:10,0.564,0.822,0.496,1.020,0.728,0.324,0.576,0.542,��,11.6,��
2023/04/29,16:20,0.563,0.822,0.498,1.020,0.729,0.325,0.576,0.544,��,13.3,��
2023/04/29,16:30,0.562,0.823,0.497,1.018,0.730,0.324,0.575,0.543,��,14.6,��
2023/04/29,16:40,0.564,0.825,0.496,1.021,0.729,0.324,0.576,0.543,��,14.4,��
2023/04/29,16:50,0.565,0.823,0.498,1.021,0.729,0.325,0.575,0.544,��,16.0,��
2023/04/29,17:00,0.564,0.822,0.498,1.021,0.729,0.324,0.575,0.544,��,13.3,��
2023/04/29,17:10,0.565,0.824,0.497,1.021,0.731,0.324,0.573,0.544,��,14.1,��
2023/04/29,17:20,0.565,0.824,0.497,1.019,0.729,0.325,0.576,0.544,��,13.6,��
2023/04/29,17:30,0.564,0.823,0.497,1.023,0.728,0.322,0.574,0.544,��,9.9,��
2023/04/29,17:40,0.564,0.822,0.498,1.023,0.729,0.324,0.576,0.543,��쓌,11.1,��
2023/04/29,17:50,0.563,0.823,0.497,1.021,0.729,0.325,0.576,0.544,��,10.5,��
2023/04/29,18:00,0.563,0.824,0.497,1.022,0.729,0.325,0.575,0.544,��,9.2,��
2023/04/29,18:10,0.562,0.826,0.496,1.024,0.729,0.325,0.576,0.545,��,11.0,��
2023/04/29,18:20,0.563,0.825,0.496,1.024,0.730,0.325,0.574,0.546,��,11.1,��
2023/04/29,18:30,0.562,0.825,0.496,1.024,0.727,0.325,0.576,0.545,��,10.6,��
2023/04/29,18:40,0.563,0.824,0.495,1.024,0.728,0.325,0.575,0.545,��,10.0,��
2023/04/29,18:50,0.564,0.824,0.496,1.023,0.727,0.326,0.575,0.545,��,10.8,��
2023/04/29,19:00,0.565,0.824,0.498,1.024,0.731,0.324,0.576,0.548,��,10.5,��
2023/04/29,19:10,0.564,0.824,0.497,1.025,0.729,0.323,0.575,0.545,��,8.8,��
2023/04/29,19:20,0.565,0.825,0.497,1.025,0.728,0.324,0.576,0.546,��,10.2,��
2023/04/29,19:30,0.563,0.824,0.498,1.025,0.728,0.325,0.576,0.547,��,11.4,��
2023/04/29,19:40,0.564,0.823,0.497,1.024,0.727,0.324,0.576,0.546,��쓌,9.4,��
2023/04/29,19:50,0.562,0.823,0.498,1.026,0.728,0.325,0.576,0.547,��,9.4,��
2023/04/29,20:00,0.564,0.821,0.499,1.024,0.729,0.325,0.576,0.546,��쓌,11.4,�L
2023/04/29,20:10,0.564,0.824,0.499,1.025,0.728,0.324,0.577,0.546,��쓌,10.0,�L
2023/04/29,20:20,0.563,0.822,0.499,1.025,0.730,0.324,0.575,0.545,��쓌,11.9,�L
2023/04/29,20:30,0.564,0.824,0.499,1.026,0.729,0.325,0.574,0.547,��쓌,11.9,��
2023/04/29,20:40,0.565,0.825,0.498,1.026,0.729,0.325,0.577,0.546,��쓌,10.5,��
2023/04/29,20:50,0.564,0.824,0.499,1.025,0.729,0.324,0.576,0.545,��,12.8,�L
2023/04/29,21:00,0.566,0.822,0.499,1.025,0.727,0.324,0.577,0.546,��,12.2,�L
2023/04/29,21:10,0.565,0.824,0.499,1.025,0.729,0.325,0.576,0.545,��쓌,10.8,�L
2023/04/29,21:20,0.564,0.823,0.499,1.025,0.727,0.324,0.577,0.546,��,8.0,�L
2023/04/29,21:30,0.566,0.825,0.499,1.026,0.729,0.325,0.578,0.546,��,10.5,�L
2023/04/29,21:40,0.564,0.823,0.500,1.024,0.729,0.326,0.577,0.547,��,11.4,�L
2023/04/29,21:50,0.565,0.825,0.500,1.025,0.732,0.326,0.577,0.545,��,10.2,�L
2023/04/29,22:00,0.566,0.824,0.500,1.026,0.726,0.324,0.578,0.546,��쓌,9.5,��
2023/04/29,22:10,0.564,0.823,0.500,1.023,0.729,0.324,0.577,0.546,��쓌,9.4,�L
2023/04/29,22:20,0.566,0.826,0.500,1.025,0.729,0.326,0.577,0.547,��,8.3,�L
2023/04/29,22:30,0.564,0.828,0.500,1.027,0.728,0.325,0.577,0.548,��,8.8,�L
2023/04/29,22:40,0.564,0.825,0.500,1.024,0.729,0.325,0.579,0.545,��,7.2,��
2023/04/29,22:50,0.567,0.827,0.500,1.026,0.728,0.325,0.578,0.546,��,7.0,��
2023/04/29,23:00,0.565,0.826,0.499,1.024,0.728,0.325,0.577,0.546,��,8.0,��
2023/04/29,23:10,0.565,0.825,0.500,1.026,0.728,0.324,0.576,0.547,��,7.7,��
2023/04/29,23:20,0.565,0.824,0.499,1.023,0.729,0.326,0.577,0.546,��,8.7,��
2023/04/29,23:30,0.564,0.825,0.499,1.027,0.730,0.326,0.578,0.546,��,7.1,��
2023/04/29,23:40,0.566,0.825,0.501,1.025,0.728,0.325,0.578,0.546,��,6.7,��
2023/04/29,23:50,0.565,0.826,0.499,1.024,0.729,0.325,0.580,0.546,��,7.7,�L
